Weather History for LKMT - August, 2013

Change the Weather History Date:

Thursday, August 29, 2013

  Actual Average (WUND) Record (WUND)
Temperature  
Mean Temperature 63 °F -  
Max Temperature 71 °F 67 °F - (-1)
Min Temperature 55 °F 48 °F - (-1)
Degree Days  
Heating Degree Days 2    
Growing Degree Days 13 (Base 50)    
Moisture  
Dew Point 53 °F    
Average Humidity 74    
Maximum Humidity 88    
Minimum Humidity 43    
Precipitation  
Precipitation 0.04 in 0.08 in - ()
Sea Level Pressure  
Sea Level Pressure 30.10 in    
Wind  
Wind Speed 4 mph ()    
Max Wind Speed 14 mph    
Max Gust Speed -    
Visibility 7.1 miles    
Events Rain    
Averages and records for this station are not official NWS values.
T = Trace of Precipitation, MM = Missing Value Source: Averaged Metar Reports

Daily Weather History Graph

Daily Weather History Graph

Search for Another Location

Airport or City:

Trip Planner

Search our weather history database for the weather conditions in past years. The results will help you decide how hot, cold, wet, or windy it might be!

Date:

Astronomy

Aug. 29, 2013 Rise Set
Actual Time 5:58 AM CEST 7:37 PM CEST
Civil Twilight 5:24 AM CEST 8:10 PM CEST
Nautical Twilight 4:43 AM CEST 8:52 PM CEST
Astronomical Twilight 3:57 AM CEST 9:37 PM CEST
Moon No Moon Rise 3:08 PM CEST (8/29)
Length of Visible Light 14h 46m
Length of Day
13h 38m
Last Quarter, 40% of the Moon is Illuminated
Aug 29
Last Quarter
Sep 5
New
Sep 12
First Quarter
Sep 19
Full
Sep 27
Last Quarter

Hourly Weather History & Observations

Time (CEST) Temp. Dew Point Humidity Pressure Visibility Wind Dir Wind Speed Gust Speed Precip Events Conditions
12:00 AM 60.8 °F 53.6 °F 77% 30.04 in - NNW 3.5 mph - N/A   Clear
12:30 AM 60.8 °F 51.8 °F 72% 30.04 in - Variable 1.2 mph - N/A   Clear
1:00 AM 60.8 °F 51.8 °F 72% 30.04 in - Variable 1.2 mph - N/A   Clear
1:30 AM 59.0 °F 51.8 °F 77% 30.04 in - NNE 3.5 mph - N/A   Clear
2:00 AM 59 °F 51 °F 66% 30.06 in 11 mi 2.2 mph - -   Partly Cloudy
2:00 AM 59.0 °F 51.8 °F 77% 30.04 in - Variable 2.3 mph - N/A   Clear
2:30 AM 59.0 °F 51.8 °F 77% 30.06 in - Variable 2.3 mph - N/A   Clear
3:00 AM 57.2 °F 51.8 °F 82% 30.06 in - SE 4.6 mph - N/A   Clear
3:30 AM 57.2 °F 51.8 °F 82% 30.06 in - ESE 3.5 mph - N/A   Clear
4:00 AM 57.2 °F 51.8 °F 82% 30.06 in 6.2 mi Variable 1.2 mph - N/A   Scattered Clouds
4:30 AM 57.2 °F 51.8 °F 82% 30.06 in 6.2 mi SE 2.3 mph - N/A   Partly Cloudy
5:00 AM 57.2 °F 51.8 °F 82% 30.06 in 6.2 mi SE 3.5 mph - N/A   Partly Cloudy
5:30 AM 57.2 °F 51.8 °F 82% 30.06 in 6.2 mi SE 3.5 mph - N/A   Partly Cloudy
6:00 AM 55.4 °F 51.8 °F 88% 30.09 in 6.2 mi ENE 3.5 mph - N/A   Partly Cloudy
6:30 AM 57.2 °F 51.8 °F 82% 30.09 in - Variable 2.3 mph - N/A   Clear
7:00 AM 57.2 °F 51.8 °F 82% 30.09 in - Variable 2.3 mph - N/A   Clear
7:30 AM 59.0 °F 51.8 °F 77% 30.09 in - ENE 4.6 mph - N/A   Clear
8:00 AM 62 °F 51 °F 58% 30.11 in 12 mi 4.5 mph - -   Mostly Cloudy
8:00 AM 60.8 °F 50.0 °F 68% 30.09 in - NE 4.6 mph - N/A   Clear
8:30 AM 62.6 °F 51.8 °F 68% 30.12 in 6.2 mi NNE 9.2 mph - N/A   Partly Cloudy
9:00 AM 60.8 °F 51.8 °F 72% 30.12 in - NNE 9.2 mph - N/A   Clear
9:30 AM 62.6 °F 51.8 °F 68% 30.12 in - NE 10.4 mph - N/A   Clear
10:00 AM 62.6 °F 51.8 °F 68% 30.12 in 6.2 mi ENE 8.1 mph - N/A   Partly Cloudy
10:30 AM 64.4 °F 53.6 °F 68% 30.12 in 6.2 mi ENE 5.8 mph - N/A   Partly Cloudy
11:00 AM 64.4 °F 53.6 °F 68% 30.12 in 6.2 mi NE 8.1 mph - N/A   Scattered Clouds
11:30 AM 66.2 °F 53.6 °F 64% 30.12 in 6.2 mi ENE 6.9 mph - N/A   Scattered Clouds
12:00 PM 64.4 °F 53.6 °F 68% 30.12 in 6.2 mi ENE 4.6 mph - N/A   Scattered Clouds
12:30 PM 66.2 °F 53.6 °F 64% 30.12 in 6.2 mi NE 4.6 mph - N/A   Scattered Clouds
1:00 PM 66.2 °F 55.4 °F 68% 30.12 in 6.2 mi ESE 3.5 mph - N/A   Scattered Clouds
1:30 PM 69.8 °F 53.6 °F 56% 30.12 in 6.2 mi NNE 5.8 mph - N/A   Scattered Clouds
2:00 PM 70 °F 53 °F 43% 30.11 in 19 mi NNW 8.9 mph - -   Partly Cloudy
2:00 PM 69.8 °F 51.8 °F 53% 30.12 in 6.2 mi North 8.1 mph - N/A   Scattered Clouds
2:30 PM 69.8 °F 51.8 °F 53% 30.12 in 6.2 mi North 8.1 mph - N/A   Mostly Cloudy
3:00 PM 69.8 °F 50.0 °F 49% 30.12 in 6.2 mi NNE 13.8 mph - N/A   Mostly Cloudy
3:30 PM 66.2 °F 46.4 °F 49% 30.12 in 6.2 mi East 13.8 mph - N/A Rain Light Rain Showers
4:00 PM 60.8 °F 51.8 °F 72% 30.12 in 6.2 mi East 9.2 mph - N/A Rain Light Rain Showers
4:30 PM 59.0 °F 53.6 °F 82% 30.12 in 6.2 mi ESE 9.2 mph - N/A Rain Light Rain Showers
5:00 PM 59.0 °F 53.6 °F 82% 30.12 in 6.2 mi Variable 2.3 mph - N/A   Scattered Clouds
5:30 PM 60.8 °F 53.6 °F 77% 30.12 in 6.2 mi Variable 2.3 mph - N/A   Scattered Clouds
6:00 PM 60.8 °F 55.4 °F 82% 30.12 in 6.2 mi NNW 3.5 mph - N/A   Partly Cloudy
6:30 PM 60.8 °F 55.4 °F 82% 30.12 in 6.2 mi ENE 3.5 mph - N/A   Partly Cloudy
7:00 PM 60.8 °F 55.4 °F 82% 30.15 in - NE 3.5 mph - N/A   Clear
7:30 PM 59.0 °F 55.4 °F 88% 30.12 in - SW 3.5 mph - N/A   Clear
8:00 PM 59 °F 55 °F 81% 30.15 in 7 mi West 2.2 mph - -   Partly Cloudy
8:00 PM 59.0 °F 53.6 °F 82% 30.12 in - Variable 1.2 mph - N/A   Clear
8:30 PM 59.0 °F 55.4 °F 88% 30.15 in - WNW 3.5 mph - N/A   Clear
9:00 PM 59.0 °F 55.4 °F 88% 30.15 in - WSW 2.3 mph - N/A   Clear
9:30 PM 59.0 °F 55.4 °F 88% 30.15 in - Variable 2.3 mph - N/A   Clear
10:00 PM 59.0 °F 55.4 °F 88% 30.15 in - Variable 2.3 mph - N/A   Clear
10:30 PM 59.0 °F 55.4 °F 88% 30.15 in - Variable 2.3 mph - N/A   Clear
11:00 PM 57.2 °F 53.6 °F 88% 30.15 in - South 3.5 mph - N/A   Clear
11:30 PM 57.2 °F 53.6 °F 88% 30.15 in - South 3.5 mph - N/A   Clear